Zurück zum Katalog

FENGYUN 1C DEB

AktivSSO
NORAD 36676·DEBRIS·🇨🇳 China

Gestartet May 10, 1999 von Taiyuan Satellite Launch Center

Loading…

Nächste Überflüge (nächste 24 Stunden)

TLE

AktuellSource: Space-Track

Epoche: Sep 12, 2026, 14:39 UTC

1 36676U 99025DYW 26255.61044191  .00000963  00000-0  28060-3 0  9996
2 36676  98.7510 168.0594 0095830  33.7822  85.7241 14.43939728690173

Verfolge FENGYUN 1C DEB in Echtzeit mit AllMySat

Download on the App Store